Regional Weather Roundup
Issued by NWS

Home | Current Version | Previous Version | Graphics & Text | Print | Product List | Glossary Off
Versions: 1 2 3 4 5 6 7 8 9 10 11 12 13 14 15 16 17 18 19 20 21 22 23 24 25 26 27 28 29 30 31 32 33 34 35 36 37 38 39 40 41 42 43 44 45 46 47 48 49 50

000
ASUS44 KMEG 181210
RWRTN
TENNESSEE HOURLY STATE WEATHER ROUNDUP
NATIONAL WEATHER SERVICE MEMPHIS TN
700 AM CDT FRI APR 18 2014

TNZ002-004-019-021-049-052-054-088>092-181300-
WEST TENNESSEE

CITY           SKY/WX    TMP DP  RH WIND       PRES   REMARKS
MEMPHIS INTL   CLOUDY    58  45  62 CALM      30.23R
NWS MEMPHIS      N/A     54 N/A N/A MISG        N/A
JACKSON        MOCLDY    53  49  86 CALM      30.25R
DYERSBURG      MOCLDY    52  39  62 N3        30.25R
UNION CITY     CLOUDY    48  46  93 CALM      30.24R
PARIS          MOCLDY    47  41  80 SE6       30.26R
LEXINGTON      CLOUDY    48  46  93 CALM      30.26R
SILERTON         N/A     53  53  98 E1          N/A
SAVANNAH       CLOUDY    54  51  89 CALM      30.26R
$$

TNZ008-025-027-028-033-062-065-066-181300-
NORTH MIDDLE TENNESSEE

CITY           SKY/WX    TMP DP  RH WIND       PRES   REMARKS
NASHVILLE      CLOUDY    55  44  66 CALM      30.30R
DICKSON        CLOUDY    52  43  71 CALM      30.27R
PORTLAND       MOCLDY    50  43  76 S3        30.28R
CLARKSVILLE    MOCLDY    48  43  82 SE5       30.28R
SMYRNA         CLOUDY    50  46  85 CALM      30.31R
MURFREESBORO   CLOUDY    53  44  71 CALM      30.29R
COOKEVILLE     SUNNY     52  45  76 CALM      30.30R
LIVINGSTON     CLOUDY    54  36  50 S5        30.31R
GALLATIN       CLOUDY    50  46  85 CALM      30.30R
CROSSVILLE     CLOUDY    50  37  61 CALM      30.32R
$$

TNZ061-075-076-078-094-096-097-181300-
SOUTH MIDDLE TENNESSEE

CITY           SKY/WX    TMP DP  RH WIND       PRES   REMARKS
LEWISBURG      CLOUDY    50  46  85 CALM      30.28R
FAYETTEVILLE   CLOUDY    54  38  54 SE7       30.27R
TULLAHOMA      MOCLDY    54  36  50 SE3       30.29R
WINCHESTER     CLOUDY    55  37  50 SE7       30.29R
MCMINNVILLE    CLEAR     50  45  81 CALM      30.29S
COLUMBIA       MOCLDY    54  50  87 CALM      30.27R
SHELBYVILLE    CLOUDY    52  45  76 CALM      30.29R
$$

TNZ017-018-042-046-047-181300-
NORTHEAST TENNESSEE

CITY           SKY/WX    TMP DP  RH WIND       PRES   REMARKS
TRI CITIES     CLOUDY    45  28  51 CALM      30.36R
ELIZABETHTON   SUNNY     45  28  53 CALM      30.36S
$$

TNZ012-013-036-069-073-074-181300-
CENTRAL EAST TENNESSEE

CITY           SKY/WX    TMP DP  RH WIND       PRES   REMARKS
KNOXVILLE      CLOUDY    49  36  61 NE6       30.33R
OAK RIDGE      CLOUDY    47  40  76 CALM      30.34S
$$

TNZ083-085-099-181300-
SOUTHEAST TENNESSEE

CITY           SKY/WX    TMP DP  RH WIND       PRES   REMARKS
CHATTANOOGA    CLOUDY    53  42  66 CALM      30.31R
$$

SKY/WX REPORTED AS FAIR MEANS FEW OR NO CLOUDS BELOW
12 THOUSAND FEET.




USA.gov is the U.S. government's official web portal to all federal, state and local government web resources and services.